Weather History for Kansas City, MO

Change the Weather History Date:

Wednesday, September 4, 2013

  Actual Average Record
Temperature  
Mean Temperature 76 °F -  
Max Temperature 89 °F 84 °F 96 °F (2012)
Min Temperature 64 °F 64 °F 54 °F (2010)
Cooling Degree Days 10    
Growing Degree Days 26 (Base 50)    
Moisture  
Dew Point 60 °F    
Average Humidity 59    
Maximum Humidity 87    
Minimum Humidity 33    
Precipitation  
Precipitation 0.00 in - - ()
Sea Level Pressure  
Sea Level Pressure 30.10 in    
Wind  
Wind Speed 2 mph (East)    
Max Wind Speed 8 mph    
Max Gust Speed -    
Visibility 10 miles    
Events      
Averages and records for this station are not official NWS values.
T = Trace of Precipitation, MM = Missing Value Source: NWS Daily Summary

Daily Weather History Graph

Daily Weather History Graph

Search for Another Location

Airport:

Trip Planner

Search our weather history database for the weather conditions in past years. The results will help you decide how hot, cold, wet, or windy it might be!

Date:

Astronomy

Sep. 04, 2013 Rise Set
Actual Time 6:50 AM CDT 7:43 PM CDT
Civil Twilight 6:22 AM CDT 8:11 PM CDT
Nautical Twilight 5:50 AM CDT 8:43 PM CDT
Astronomical Twilight 5:16 AM CDT 9:16 PM CDT
Moon 6:02 AM CDT (9/4) 7:04 PM CDT (9/4)
Length of Visible Light 13h 48m
Length of Day
12h 53m
Waning Crescent, 1% of the Moon is Illuminated
Sep 4
Waning Crescent
Sep 5
New
Sep 12
First Quarter
Sep 19
Full
Sep 26
Last Quarter

Hourly Weather History & Observations

Time (CDT) Temp. Heat Index Dew Point Humidity Pressure Visibility Wind Dir Wind Speed Gust Speed Precip Events Conditions
12:54 AM 70.0 °F - 62.1 °F 76% 30.05 in 10.0 mi Calm Calm - N/A   Clear
1:54 AM 69.1 °F - 62.1 °F 78% 30.06 in 10.0 mi Calm Calm - N/A   Clear
2:54 AM 69.1 °F - 60.1 °F 73% 30.06 in 10.0 mi Calm Calm - N/A   Clear
3:54 AM 66.9 °F - 61.0 °F 81% 30.06 in 10.0 mi Calm Calm - N/A   Clear
4:54 AM 66.0 °F - 61.0 °F 84% 30.07 in 10.0 mi Calm Calm - N/A   Clear
5:54 AM 64.9 °F - 61.0 °F 87% 30.08 in 10.0 mi Calm Calm - N/A   Clear
6:54 AM 64.0 °F - 60.1 °F 87% 30.11 in 10.0 mi Calm Calm - N/A   Clear
7:54 AM 66.9 °F - 62.1 °F 84% 30.12 in 10.0 mi Calm Calm - N/A   Clear
8:54 AM 72.0 °F - 62.1 °F 71% 30.14 in 10.0 mi NNE 3.5 mph - N/A   Clear
9:54 AM 75.9 °F - 61.0 °F 60% 30.14 in 10.0 mi Calm Calm - N/A   Clear
10:54 AM 82.0 °F 83.0 °F 62.1 °F 51% 30.15 in 9.0 mi Calm Calm - N/A   Clear
11:54 AM 84.9 °F 84.2 °F 57.9 °F 40% 30.14 in 10.0 mi East 3.5 mph - N/A   Clear
12:54 PM 86.0 °F 84.9 °F 57.0 °F 37% 30.13 in 10.0 mi Variable 4.6 mph - N/A   Clear
1:54 PM 87.1 °F 85.3 °F 55.0 °F 33% 30.11 in 10.0 mi Variable 3.5 mph - N/A   Clear
2:54 PM 87.1 °F 85.9 °F 57.0 °F 36% 30.09 in 10.0 mi East 8.1 mph - N/A   Clear
3:54 PM 87.1 °F 85.3 °F 55.0 °F 33% 30.08 in 10.0 mi NE 3.5 mph - N/A   Clear
4:54 PM 84.9 °F 83.9 °F 57.0 °F 38% 30.08 in 10.0 mi ESE 6.9 mph - N/A   Clear
5:54 PM 84.9 °F 83.6 °F 55.0 °F 36% 30.07 in 10.0 mi East 6.9 mph - N/A   Clear
6:54 PM 82.9 °F 82.4 °F 57.0 °F 41% 30.07 in 10.0 mi East 6.9 mph - N/A   Clear
7:54 PM 81.0 °F 81.1 °F 57.9 °F 45% 30.08 in 10.0 mi ESE 5.8 mph - N/A   Clear
8:54 PM 78.1 °F - 60.1 °F 54% 30.10 in 10.0 mi ESE 5.8 mph - N/A   Clear
9:54 PM 75.9 °F - 60.1 °F 58% 30.11 in 10.0 mi Calm Calm - N/A   Clear
10:54 PM 75.0 °F - 62.1 °F 64% 30.12 in 10.0 mi Calm Calm - N/A   Clear
11:54 PM 72.0 °F - 63.0 °F 73% 30.12 in 10.0 mi Calm Calm - N/A   Clear